Hourly Data Report for October 16, 2013

All times are specified in Local Standard Time (LST). Add 1 hour to adjust for Daylight Saving Time where and when it is observed.

OTTAWA INTL A
ONTARIO

45°19'00.000" N
75°40'00.000" W
114.90 m
6106001
71628
YOW

Download Data

Hourly Data (October 2013)
Hourly Data Report for October 16, 2013
Temp Definition
°C
Dew Point Temp Definition
°C
Rel Hum Definition
%
Wind Dir Definition
10's deg

Wind Spd Definition
km/h
Visibility Definition
km
Stn Press Definition
kPa
Hmdx Definition


Wind Chill Definition


Weather Definition


TIME
00:00 Legend Double Dagger 11.2 10.1 93 6 11 9.7 100.21     Fog
01:00 Legend Double Dagger 10.9 10.1 95 9 13 9.7 100.15     Fog
02:00 Legend Double Dagger 10.9 10.1 95 9 11 8.1 100.07     Fog
03:00 Legend Double Dagger 11.2 10.4 95 10 9 6.4 99.98     Fog
04:00 Legend Double Dagger 12.1 11.0 93 12 10 6.4 99.93     Fog
05:00 Legend Double Dagger 13.0 11.6 91 14 12 12.9 99.85     Rain Showers
06:00 Legend Double Dagger 13.6 12.2 91 16 14 16.1 99.81     Rain Showers
07:00 Legend Double Dagger 13.9 12.1 89 16 16 24.1 99.75     Mostly Cloudy
08:00 Legend Double Dagger 14.3 11.5 83 18 18 24.1 99.78     Rain
09:00 Legend Double Dagger 14.4 11.0 80 18 16 24.1 99.75     LegendNANA
10:00 Legend Double Dagger 14.7 11.1 79 19 17 24.1 99.73     Mostly Cloudy
11:00 Legend Double Dagger 16.1 11.3 73 20 23 24.1 99.74     LegendNANA
12:00 Legend Double Dagger 17.0 12.6 75 21 18 24.1 99.67     LegendNANA
13:00 Legend Double Dagger 17.4 12.8 74 20 14 24.1 99.61     Mostly Cloudy
14:00 Legend Double Dagger 17.9 13.3 74 20 10 24.1 99.57     LegendNANA
15:00 Legend Double Dagger 17.6 13.2 75 19 16 24.1 99.52     LegendNANA
16:00 Legend Double Dagger 17.3 12.5 73 18 20 24.1 99.48     Mostly Cloudy
17:00 Legend Double Dagger 16.7 12.7 77 18 20 24.1 99.48     LegendNANA
18:00 Legend Double Dagger 16.1 12.3 78 17 14 24.1 99.44     LegendNANA
19:00 Legend Double Dagger 15.7 12.1 79 18 17 24.1 99.40     Mostly Cloudy
20:00 Legend Double Dagger 15.2 12.2 82 17 15 24.1 99.35     LegendNANA
21:00 Legend Double Dagger 15.7 12.5 81 18 22 19.3 99.29     Rain
22:00 Legend Double Dagger 15.2 13.1 87 21 23 24.1 99.32     Cloudy
23:00 Legend Double Dagger 14.4 13.8 96 20 10 12.9 99.28     Moderate Rain

Notes on Data Quality.

Legend

  • E = Estimated
  • M = Missing
  • NA = Not Available
  • ‡ = Partner data that is not subject to review by the National Climate Archives
Date modified: